Location: Poughquag
(41.6090°N, 73.6820°W)
Time: 15:08:44
(UTC-04:00)

Transit 2A Rocket - Visible Passes

Search period start: 10 August 2020 00:00
Search period end: 20 August 2020 00:00
Orbit: 584 x 919 km, 66.7° (Epoch: 10 August)

Date Brightness Start Highest point End Pass type
(mag) Time Alt. Az. Time Alt. Az. Time Alt. Az.
10 Aug 6.0 05:13:56 10° S 05:19:27 53° ESE 05:25:20 10° NE visible
11 Aug 6.8 04:32:06 10° S 04:37:06 32° ESE 04:42:22 10° NE visible
12 Aug 7.4 03:50:58 10° SSE 03:54:52 19° ESE 03:58:56 10° ENE visible
12 Aug 5.4 05:31:05 10° SW 05:36:50 70° WNW 05:42:57 10° NNE visible
13 Aug 7.8 03:11:50 10° ESE 03:12:46 10° E 03:13:41 10° E visible
13 Aug 5.5 04:48:44 11° SSW 04:54:15 74° ESE 05:00:21 10° NNE visible
14 Aug 6.1 04:07:47 18° S 04:11:48 45° ESE 04:17:33 10° NE visible
15 Aug 6.9 03:26:47 19° SE 03:29:29 27° ESE 03:34:27 10° NE visible
15 Aug 5.7 05:06:43 13° SW 05:11:47 52° NW 05:17:46 10° NNE visible
16 Aug 7.3 02:45:44 14° ESE 02:47:18 16° ESE 02:50:44 10° ENE visible
16 Aug 5.3 04:25:39 26° SW 04:29:06 82° WNW 04:35:16 10° NNE visible
17 Aug 5.5 03:44:33 40° S 03:46:34 63° ESE 03:52:35 10° NE visible
17 Aug 6.6 05:24:45 10° WSW 05:29:42 27° NW 05:34:49 10° NNE visible
18 Aug 6.2 03:03:24 36° SE 03:04:09 38° ESE 03:09:43 10° NE visible
18 Aug 6.0 04:43:19 21° WSW 04:46:47 39° NW 04:52:31 10° NNE visible
19 Aug 7.0 02:22:12 23° E 02:22:12 23° E 02:26:28 10° NE visible
19 Aug 5.5 04:02:07 41° WSW 04:04:01 61° NW 04:10:07 10° NNE visible
